Regional Weather Roundup
Issued by NWS

Home | Current Version | Previous Version | Text Only | Print | Product List | Glossary On
Versions: 1 2 3 4 5 6 7 8 9 10 11 12 13 14 15 16 17 18 19 20 21 22 23 24 25 26 27 28 29 30 31 32 33 34 35 36 37 38 39 40 41 42 43 44 45 46 47 48 49 50
000
ASUS43 KTOP 212059
RWRKS

WEATHER ROUNDUP FOR KANSAS
NATIONAL WEATHER SERVICE GOODLAND KS
300 PM CST TUE FEB 21 2017

NOTE:  "FAIR" INDICATES FEW OR NO CLOUDS BELOW 12,000 FEET WITH NO
SIGNIFICANT WEATHER AND/OR OBSTRUCTIONS TO VISIBILITY.

KSZ001>006-013>018-027>032-041>047-212200-
NORTHWEST KANSAS

CITY           SKY/WX    TMP DP  RH WIND       PRES   REMARKS
GOODLAND       SUNNY     76  19  11 NW13      29.94F
HAYS           SUNNY     76  25  15 SW14      29.91F
HILL CITY      SUNNY     79  25  13 W8        29.90F
RUSSELL        SUNNY     76  21  12 SW15      29.90F
$$

KSZ061>065-074>080-084>089-212200-
SOUTHWEST KANSAS

CITY           SKY/WX    TMP DP  RH WIND       PRES   REMARKS
DODGE CITY     SUNNY     77  16  10 SW8       29.94F
ELKHART          N/A     77  28  16 N3          N/A
GARDEN CITY    SUNNY     78  19  11 NW10      29.95F
GREAT BEND     SUNNY     76  23  14 W13       29.93F
LIBERAL        SUNNY     77  23  13 N6        29.98F
$$

KSZ066>073-081>083-090>101-212200-
SOUTHEAST KANSAS

CITY           SKY/WX    TMP DP  RH WIND       PRES   REMARKS
CHANUTE        SUNNY     73  48  41 N9        29.92F
COFFEYVILLE    SUNNY     73  49  42 NW14G20   29.91F
HUTCHINSON     SUNNY     72  29  20 CALM      29.94F
MEDICINE LODGE   N/A     75  27  17 CALM      29.94F
NEWTON         SUNNY     68  37  32 VRB3      29.96F
PARSONS        SUNNY     73  48  41 VRB7      29.92F
WICHITA INTL   MOSUNNY   70  34  26 N5        29.95F
WICHITA JABRA  SUNNY     69  35  28 NW6       29.95F
WINFIELD       SUNNY     70  32  24 N9        29.96F
$$

KSZ007>012-019>026-033>040-048>060-102>105-212200-
NORTHEAST KANSAS

CITY           SKY/WX    TMP DP  RH WIND       PRES   REMARKS
CONCORDIA      SUNNY     73  29  19 SW14      29.90F
EMPORIA        SUNNY     68  32  26 S3        29.93F
LAWRENCE       SUNNY     70  39  32 W5        29.92F
MANHATTAN      SUNNY     70  38  31 SW3       29.92F
OLATHE IND     SUNNY     70  43  37 NW5       29.92F
OLATHE EXE     SUNNY     69  45  41 W6        29.91F
SALINA         SUNNY     76  26  15 S12       29.92F
TOPEKA BILLARD SUNNY     69  38  32 CALM      29.92F
TOPEKA FORBES  SUNNY     70  28  21 CALM      29.93F
$$




USA.gov is the U.S. government's official web portal to all federal, state and local government web resources and services.